[[{"header":{"parameterUnit":"m.s-1","parameterCategory":1,"la1":30.2991,"la2":30.254,"lo1":-89.0895,"lo2":-89.0444,"dy":0.0017,"dx":0.0017,"nx":28,"ny":28,"refTime":"2023-07-28T21:00:00:Z","depth":0,"parameterNumber":2,"parameterNumberName":"U-component_of_WINDS"},"data":[0,0,0,0,0,0,0,0,0,0,0,0,0,0,0,0,0,0,0,0,0,0,0,0,0,0,0,0,0,0,0,0,0,0,0,0,0,0,0,0,0,0,0,0,0,0,0,0,0,0,0,0,0,0,0,0,0,0,2.4419,2.4421,0,2.4583,2.4584,2.4586,2.4603,2.4602,2.46,2.4598,2.4765,2.4771,2.4777,0,0,0,0,0,0,0,0,0,0,0,0,0,2.4122,2.4127,2.4419,2.4421,2.4423,2.4582,2.4584,2.4587,2.4604,2.4602,2.46,2.4598,2.4763,2.477,2.4777,0,0,0,0,0,0,0,0,0,0,0,0,0,2.4265,2.4129,2.4419,2.4451,2.4455,2.4582,2.4585,2.4587,2.4604,2.4601,2.4599,2.4597,2.4761,2.4769,2.4778,2.4884,0,0,2.4806,2.481,0,0,0,0,0,0,0,0,2.4257,2.4276,2.4444,2.4449,2.4454,2.457,2.4541,2.4687,2.4605,2.4548,2.4598,2.4595,2.4702,2.4716,2.4752,2.4892,2.4899,2.4806,2.4812,2.4816,2.4818,0,0,0,0,0,0,0,2.4247,2.4269,2.4484,2.4446,2.4453,2.4457,2.4475,2.4569,2.4637,2.4552,2.4554,2.4573,2.4704,2.4743,2.4756,2.4901,2.4806,2.4814,2.482,2.4823,2.5136,2.5139,0,0,0,0,0,0,2.4231,2.426,2.4479,2.4489,2.4347,2.4464,2.4484,2.4535,2.4636,2.4649,2.4575,2.4573,2.4729,2.4745,2.4762,2.4892,2.4816,2.4824,2.4829,2.5134,2.5137,2.514,0,0,0,0,0,0,2.4224,2.425,2.4472,2.4375,2.4404,2.4472,2.453,2.454,2.4579,2.4653,2.4665,2.4602,2.4728,2.4749,2.4854,2.4898,2.4828,2.4836,2.513,2.5135,2.5139,2.5153,0,0,0,0,0,0,2.4216,2.4248,2.4288,2.4376,2.4409,2.4561,2.4532,2.4545,2.4594,2.4593,2.4682,2.4694,2.4727,2.484,2.4862,2.4909,2.4843,2.5126,2.5132,2.5137,2.5149,2.5158,2.5165,0,0,0,0,0,2.4205,2.4286,2.429,2.4316,2.4461,2.4563,2.4582,2.4619,2.4598,2.4639,2.4687,2.4691,2.489,2.4851,2.4876,2.4926,2.5124,2.5131,2.5137,2.5145,2.5156,2.5165,0,0,0,0,0,0,2.4201,2.4297,2.4304,2.4415,2.4481,2.4566,2.4619,2.4629,2.4702,2.4698,2.4741,2.4761,2.4864,2.4906,2.486,2.5034,2.5005,2.5017,2.5002,2.5013,2.5021,2.5008,2.4851,0,0,0,0,0,2.4213,2.4288,2.4369,2.4459,2.4492,2.455,2.4596,2.4619,2.4689,2.4717,2.4772,2.484,2.4918,2.4968,2.5043,2.5156,2.5175,2.5203,2.5211,2.5217,2.5226,2.5289,2.5302,2.5162,2.5162,2.5162,0,0,2.4238,2.43,2.4345,2.446,2.4513,2.459,2.4573,2.4655,2.4713,2.4729,2.4831,2.4874,2.4953,2.5061,2.5112,2.51,2.527,2.5225,2.523,2.5236,2.5297,2.5311,2.5322,2.5166,2.5166,2.5165,0,0,2.4323,2.4378,2.446,2.4514,2.4596,2.4635,2.4654,2.4739,2.4768,2.4872,2.4886,2.4955,2.5088,2.5143,2.5189,2.5297,2.5304,2.5321,2.5362,2.5423,2.5434,2.5444,2.5482,2.5496,2.533,2.5331,2.5331,0,2.4344,2.4461,2.45,2.4582,2.4632,2.4652,2.4735,2.4786,2.4888,2.4922,2.4907,2.5075,2.5129,2.5251,2.5278,2.5314,2.5338,2.531,2.5429,2.5439,2.5449,2.5487,2.5501,2.5332,2.5332,2.5332,2.5332,0,2.4483,2.4564,2.462,2.4719,2.4775,2.4857,2.4909,2.4962,2.498,2.502,2.5126,2.5192,2.5281,2.5312,2.5331,2.5438,2.5427,2.542,2.5391,2.5464,2.5499,2.5514,2.5334,2.5334,2.5333,2.5333,0,0,2.4568,2.4689,2.4709,2.4754,2.4847,2.491,2.4994,2.5082,2.5126,2.5197,2.5268,2.5381,2.5375,2.5427,2.5452,2.5506,2.5587,2.5492,2.5495,2.5507,2.5709,2.5713,2.5729,2.5593,2.5596,2.5598,2.5702,0,2.4663,2.4812,2.4851,2.4977,2.5053,2.5074,2.5146,2.5211,2.5251,2.5321,2.5366,2.5445,2.5432,2.5463,2.5517,2.5566,2.5628,2.5559,2.5659,2.5662,2.5638,2.5748,2.5753,2.5848,2.5717,2.5719,2.5721,0,2.4794,2.4868,2.5002,2.5086,2.512,2.5184,2.5269,2.5335,2.541,2.5435,2.5494,2.5515,2.5603,2.5571,2.5692,2.5644,2.5688,2.5718,2.5723,2.5733,2.5695,2.576,2.5879,2.5893,2.5743,2.5741,2.574,0,2.4842,2.4975,2.5073,2.5112,2.5212,2.5257,2.5301,2.5374,2.5424,2.5499,2.5532,2.5615,2.5661,2.5725,2.5768,2.574,2.5886,2.5857,2.591,2.5908,2.5938,2.5936,2.6065,2.5968,2.5967,2.5967,2.5967,0,2.4944,2.5025,2.5096,2.5156,2.5248,2.5292,2.5382,2.5427,2.5491,2.5561,2.5584,2.5648,2.5701,2.5773,2.5808,2.5903,2.5924,2.5947,2.5955,2.5944,2.5941,2.5972,2.5967,2.5971,2.597,2.5969,2.5969,0,2.5012,2.5063,2.5171,2.5258,2.5282,2.5346,2.5421,2.548,2.5522,2.5609,2.5632,2.5698,2.5784,2.5833,2.5941,2.5965,2.6071,2.6076,2.6046,2.6049,2.6098,2.6093,2.6252,2.6275,2.6162,2.6163,2.6164,0,2.5073,2.5136,2.5231,2.5279,2.5324,2.5402,2.5454,2.5501,2.5554,2.5645,2.5693,2.5781,2.5853,2.599,2.6047,2.613,2.6137,2.6187,2.6149,2.6137,2.6137,2.6132,2.6139,2.6193,2.6194,2.6195,2.6195,0,2.5175,2.5198,2.5273,2.5358,2.542,2.5489,2.5557,2.5595,2.5653,2.5712,2.5801,2.5857,2.5968,2.6055,2.6143,2.6189,2.6202,2.6207,2.6223,2.6213,2.6192,2.6204,2.6062,2.6203,2.6202,2.6201,2.6201,2.6201,2.5242,2.5299,2.5375,2.5458,2.5515,2.5579,2.5639,2.5689,2.5764,2.5858,2.5881,2.5974,2.6048,2.6168,2.6216,2.629,2.6281,2.6305,2.6311,2.6316,2.6317,2.6182,2.6306,2.6306,2.6306,2.6306,2.6306,0,2.5345,2.5396,2.5472,2.5567,2.5633,2.5641,2.5717,2.5771,2.5853,2.5922,2.5993,2.6095,2.618,2.6244,2.6331,2.6377,2.6386,2.6399,2.6395,2.6405,2.632,2.6297,2.639,2.639,2.639,2.639,2.639,2.639,2.5407,2.5504,2.5537,2.5663,2.5713,2.5805,2.5848,2.5907,2.5962,2.6075,2.6146,2.6188,2.6255,2.6347,2.6425,2.6442,2.6472,2.6484,2.6502,2.6421,2.6411,2.6403,2.6381,2.6491,2.6491,2.6581,2.6582,2.6583]},{"header":{"parameterUnit":"m.s-1","parameterCategory":1,"la1":30.2991,"la2":30.254,"lo1":-89.0895,"lo2":-89.0444,"dy":0.0017,"dx":0.0017,"nx":28,"ny":28,"refTime":"2023-07-28T21:00:00:Z","depth":0,"parameterNumber":3,"parameterNumberName":"V-component_of_WINDS"},"data":[0,0,0,0,0,0,0,0,0,0,0,0,0,0,0,0,0,0,0,0,0,0,0,0,0,0,0,0,0,0,0,0,0,0,0,0,0,0,0,0,0,0,0,0,0,0,0,0,0,0,0,0,0,0,0,0,0,0,4.7032,4.7032,0,4.6986,4.6985,4.6985,4.689,4.6888,4.6886,4.6884,4.6839,4.684,4.6841,0,0,0,0,0,0,0,0,0,0,0,0,0,4.7042,4.7043,4.7032,4.7032,4.7031,4.6986,4.6985,4.6985,4.689,4.6888,4.6885,4.6883,4.6839,4.684,4.6841,0,0,0,0,0,0,0,0,0,0,0,0,0,4.7021,4.7043,4.7032,4.6978,4.6973,4.6986,4.6985,4.6984,4.689,4.6888,4.6885,4.6882,4.6839,4.684,4.6841,4.6903,0,0,4.6843,4.6844,0,0,0,0,0,0,0,0,4.7023,4.7021,4.6987,4.6982,4.6976,4.694,4.6972,4.6957,4.6891,4.6922,4.6884,4.6881,4.6876,4.6873,4.6871,4.6901,4.6899,4.6843,4.6844,4.6844,4.6845,0,0,0,0,0,0,0,4.7024,4.7022,4.7014,4.6987,4.698,4.6957,4.6951,4.6969,4.6915,4.6919,4.6912,4.6908,4.6872,4.687,4.6869,4.6899,4.6843,4.6844,4.6845,4.6845,4.6978,4.6981,0,0,0,0,0,0,4.7033,4.7024,4.7015,4.7013,4.6993,4.696,4.6953,4.6955,4.6915,4.6906,4.691,4.6903,4.687,4.6868,4.6867,4.6937,4.6844,4.6845,4.6846,4.6975,4.6979,4.6982,0,0,0,0,0,0,4.7034,4.7033,4.7017,4.7016,4.7013,4.6962,4.6966,4.6956,4.6953,4.6908,4.6898,4.6918,4.6868,4.6866,4.6895,4.6935,4.6846,4.6846,4.6972,4.6977,4.6981,4.7079,0,0,0,0,0,0,4.7034,4.7034,4.7056,4.7018,4.7013,4.7045,4.6968,4.6957,4.6955,4.6946,4.6913,4.6905,4.6865,4.6894,4.6896,4.6934,4.6847,4.6968,4.6974,4.6979,4.7072,4.7087,4.7099,0,0,0,0,0,4.7035,4.7087,4.7058,4.7057,4.704,4.7048,4.7045,4.6998,4.6959,4.6981,4.6952,4.6906,4.693,4.6898,4.6899,4.6938,4.6965,4.6972,4.6979,4.7066,4.7084,4.7099,0,0,0,0,0,0,4.7132,4.708,4.7048,4.7089,4.7073,4.7031,4.7058,4.7018,4.7014,4.7006,4.6948,4.6942,4.6978,4.6961,4.6926,4.6997,4.694,4.6948,4.7007,4.7023,4.7036,4.7039,4.6848,0,0,0,0,0,4.7158,4.7168,4.7122,4.7163,4.7156,4.7109,4.7111,4.7076,4.7058,4.7051,4.7024,4.7009,4.7013,4.7017,4.7019,4.707,4.7061,4.7097,4.7111,4.7122,4.7129,4.7155,4.717,4.7005,4.7004,4.7004,0,0,4.7212,4.7185,4.7195,4.7181,4.7165,4.7177,4.7104,4.712,4.7128,4.7053,4.7078,4.7059,4.7038,4.7079,4.7095,4.7066,4.7173,4.7131,4.714,4.714,4.7163,4.7179,4.7193,4.7009,4.7008,4.7008,0,0,4.7316,4.7297,4.7328,4.7313,4.729,4.7258,4.7266,4.723,4.7214,4.7238,4.7182,4.7192,4.7201,4.7188,4.7183,4.7284,4.7241,4.7287,4.7356,4.7382,4.7395,4.7406,4.7442,4.7455,4.7294,4.7294,4.7294,0,4.7387,4.7401,4.735,4.7368,4.7365,4.7297,4.7328,4.7317,4.7296,4.7295,4.7262,4.7271,4.7253,4.7289,4.7314,4.7312,4.732,4.7289,4.7397,4.7408,4.7417,4.7451,4.7464,4.7299,4.7299,4.7298,4.7298,0,4.7489,4.75,4.7528,4.7508,4.7507,4.7533,4.7486,4.7492,4.7458,4.743,4.7456,4.7432,4.7427,4.7433,4.74,4.7465,4.7448,4.7407,4.7349,4.744,4.747,4.7482,4.7307,4.7305,4.7304,4.7302,0,0,4.7652,4.7603,4.7614,4.7604,4.7573,4.7581,4.7605,4.7599,4.7605,4.7593,4.7611,4.762,4.7582,4.7577,4.7542,4.7565,4.7646,4.7521,4.752,4.7545,4.7716,4.7747,4.7762,4.7618,4.762,4.7622,4.7718,0,4.7748,4.7783,4.7738,4.7783,4.7793,4.7729,4.7749,4.7734,4.7709,4.7714,4.7687,4.7694,4.7644,4.764,4.766,4.7632,4.768,4.7625,4.7635,4.7636,4.7641,4.7778,4.781,4.7902,4.773,4.7732,4.7733,0,4.7865,4.7858,4.7904,4.787,4.7873,4.7891,4.7883,4.7889,4.787,4.7851,4.7845,4.7803,4.7824,4.7769,4.7797,4.7761,4.7763,4.775,4.7752,4.7751,4.7689,4.778,4.793,4.7943,4.7751,4.775,4.7748,0,4.7978,4.798,4.8008,4.8002,4.7964,4.7978,4.7963,4.7941,4.7941,4.7935,4.7934,4.793,4.7928,4.7927,4.7886,4.7849,4.792,4.7861,4.7904,4.7906,4.7921,4.7921,4.8073,4.7924,4.7924,4.7924,4.7923,0,4.809,4.8121,4.8058,4.8075,4.8108,4.8057,4.8091,4.807,4.8051,4.8063,4.8009,4.8022,4.7967,4.7975,4.7944,4.7972,4.7972,4.7957,4.7948,4.7961,4.7963,4.7961,4.7953,4.7927,4.7926,4.7926,4.7925,0,4.8222,4.8181,4.8207,4.8169,4.816,4.8186,4.8154,4.8169,4.8141,4.8157,4.8159,4.8115,4.8121,4.808,4.8079,4.8058,4.8102,4.8082,4.8108,4.8102,4.8147,4.8144,4.8303,4.8321,4.8162,4.8163,4.8165,0,4.8296,4.8317,4.8282,4.8286,4.8273,4.8281,4.828,4.8231,4.8233,4.8213,4.8231,4.8233,4.8231,4.8244,4.8213,4.8212,4.8192,4.8248,4.8192,4.8204,4.8192,4.8191,4.8193,4.826,4.8262,4.8263,4.8265,0,4.8431,4.8409,4.841,4.8404,4.8405,4.8398,4.8388,4.8395,4.8341,4.8346,4.8352,4.8351,4.8349,4.8352,4.8345,4.8331,4.8289,4.8283,4.8293,4.8306,4.832,4.8313,4.8139,4.8279,4.8278,4.8277,4.8276,4.8275,4.8535,4.8551,4.8529,4.8532,4.8519,4.8511,4.8522,4.8496,4.8499,4.8494,4.8465,4.8476,4.8457,4.8443,4.8433,4.8441,4.8415,4.8429,4.8433,4.8437,4.8445,4.8319,4.844,4.844,4.8439,4.8439,4.8439,0,4.8666,4.8649,4.8652,4.8639,4.8642,4.8602,4.8589,4.8594,4.8604,4.8589,4.8589,4.8596,4.8598,4.8568,4.8566,4.8579,4.856,4.858,4.8579,4.8576,4.8469,4.846,4.8596,4.8596,4.8596,4.8596,4.8596,4.8596,4.8735,4.8761,4.8737,4.8757,4.8739,4.8749,4.8745,4.8737,4.8726,4.8735,4.8737,4.8716,4.8696,4.8693,4.8694,4.8685,4.8687,4.8714,4.8698,4.8599,4.8584,4.8569,4.856,4.8715,4.8715,4.8804,4.8805,4.8806]}]]